User: anonymous   Login
Location: Parc des �les de St-Timoth�e
(45.2924°N, 74.0481°W)
Time: 05:18:20
(UTC-04:00)
Language:

Cosmos 2173 Rocket - Orbit

View from above orbital plane
View from above orbital plane
View from above satellite
View from above satellite

Ground track
Ground track

The orbit data is extracted from the following two-line orbital elements,

1 21797U 91081B   16210.44882935  .00000022  00000-0  72275-5 0  9990
2 21797  82.9559 302.5963 0036589 275.5991 134.6464 13.77380526239838
Epoch (UTC): 28 July 2016 10:46:18
Eccentricity: 0.0036589
inclination: 82.9559°
perigee height: 946 km
apogee height: 1000 km
right ascension of ascending node: 302.5963°
argument of perigee: 275.5991°
revolutions per day: 13.77380526
mean anomaly at epoch: 134.6464°
orbit number at epoch: 23983

The dashed part of the orbit path shows where the satellite is in the earth's shadow,  

DLR